AA7DG Weather Reports


time (UTC)temp
C
wind
direction
speed
KPH
gust
KPH
rain 1hr
cm
rain 24hr
cm
rain mn
cm
humidity
%
barometer
mb
20260505074501 12 186 0.0 0.0 0.00 0.00 0.00 66 1011.2
20260505074000 12 177 0.0 1.6 0.00 0.00 0.00 66 1011.3
20260505073501 12 138 0.0 1.6 0.00 0.00 0.00 65 1011.2
20260505073005 13 65 0.0 1.6 0.00 0.00 0.00 63 1011.2
20260505072501 13 70 0.0 1.6 0.00 0.00 0.00 64 1011.2
20260505071501 13 82 0.0 1.6 0.00 0.00 0.00 62 1011.2
20260505071012 13 82 0.0 1.6 0.00 0.00 0.00 62 1011.0
20260505070507 13 57 0.0 1.6 0.00 0.00 0.00 63 1010.8
20260505070001 13 55 0.0 1.6 0.00 0.00 0.00 62 1010.8
20260505065501 13 54 0.0 1.6 0.00 0.00 0.00 62 1010.8
20260505065002 13 55 0.0 1.6 0.00 0.00 0.00 61 1010.8
20260505064502 13 54 1.6 1.6 0.00 0.00 0.00 61 1010.8
20260505064006 13 54 0.0 1.6 0.00 0.00 0.00 60 1010.8
20260505063001 13 69 0.0 3.2 0.00 0.00 0.00 61 1010.8
20260505062501 13 110 0.0 1.6 0.00 0.00 0.00 62 1010.8
20260505061505 14 119 0.0 1.6 0.00 0.00 0.00 60 1010.8
20260505061011 15 63 0.0 1.6 0.00 0.00 0.00 58 1010.8
20260505060501 15 66 0.0 1.6 0.00 0.00 0.00 58 1010.8
20260505060001 15 117 0.0 0.0 0.00 0.00 0.00 57 1010.5
20260505055502 15 117 0.0 1.6 0.00 0.00 0.00 58 1010.5
20260505055012 15 116 0.0 1.6 0.00 0.00 0.00 58 1010.5
20260505054506 15 113 1.6 1.6 0.00 0.00 0.00 57 1010.5
20260505054000 15 140 1.6 3.2 0.00 0.00 0.00 56 1010.5
20260505053502 16 198 0.0 1.6 0.00 0.00 0.00 54 1010.5
20260505053002 16 47 1.6 3.2 0.00 0.00 0.00 52 1010.5
20260505052500 16 45 1.6 3.2 0.00 0.00 0.00 52 1010.5
20260505052001 16 58 0.0 3.2 0.00 0.00 0.00 52 1010.3
20260505051502 16 89 0.0 0.0 0.00 0.00 0.00 52 1010.2
20260505051002 16 88 0.0 1.6 0.00 0.00 0.00 50 1010.2
20260505050501 16 89 0.0 1.6 0.00 0.00 0.00 50 1010.2
20260505041506 18 10 0.0 0.0 0.00 0.00 0.00 45 1009.5
20260505041001 18 10 0.0 0.0 0.00 0.00 0.00 45 1009.5
20260505040501 18 10 0.0 0.0 0.00 0.00 0.00 43 1009.5
20260505040001 19 10 0.0 0.0 0.00 0.00 0.00 43 1009.4
20260505035006 20 10 0.0 0.0 0.00 0.00 0.00 39 1009.1
20260505034501 20 10 0.0 1.6 0.00 0.00 0.00 38 1009.1
20260505034001 20 10 1.6 1.6 0.00 0.00 0.00 37 1009.1
20260505033501 20 10 1.6 3.2 0.00 0.00 0.00 36 1009.1
20260505033001 21 16 0.0 1.6 0.00 0.00 0.00 35 1009.1
20260505032501 21 46 0.0 1.6 0.00 0.00 0.00 35 1009.1
20260505032007 21 46 0.0 0.0 0.00 0.00 0.00 35 1008.8
20260505031506 22 46 1.6 1.6 0.00 0.00 0.00 33 1008.8
20260505031001 22 100 0.0 1.6 0.00 0.00 0.00 33 1008.8
20260505030501 22 114 0.0 1.6 0.00 0.00 0.00 32 1008.8
20260505025502 23 58 0.0 1.6 0.00 0.00 0.00 30 1008.6
20260505025004 23 57 1.6 3.2 0.00 0.00 0.00 29 1008.5
20260505024505 23 111 3.2 8.0 0.00 0.00 0.00 28 1008.5
20260505024007 24 64 3.2 6.4 0.00 0.00 0.00 28 1008.5
20260505023506 24 61 1.6 6.4 0.00 0.00 0.00 28 1008.5
20260505023001 24 68 1.6 6.4 0.00 0.00 0.00 27 1008.5
20260505022500 24 69 1.6 3.2 0.00 0.00 0.00 27 1008.5
20260505022006 25 87 1.6 8.0 0.00 0.00 0.00 27 1008.5
20260505021506 25 55 1.6 4.8 0.00 0.00 0.00 27 1008.5
20260505021010 25 21 1.6 6.4 0.00 0.00 0.00 27 1008.5
20260505020501 25 50 1.6 6.4 0.00 0.00 0.00 26 1008.5
20260505020001 25 75 3.2 6.4 0.00 0.00 0.00 26 1008.5
20260505015501 25 47 4.8 8.0 0.00 0.00 0.00 26 1008.3
20260505015001 25 40 3.2 6.4 0.00 0.00 0.00 26 1008.2
20260505014502 25 23 4.8 11.3 0.00 0.00 0.00 26 1008.1
20260505014019 25 9 3.2 6.4 0.00 0.00 0.00 25 1008.2
20260505013501 25 24 4.8 8.0 0.00 0.00 0.00 25 1008.5
20260505012505 25 10 3.2 9.7 0.00 0.00 0.00 26 1008.5
20260505012001 25 7 4.8 11.3 0.00 0.00 0.00 25 1008.5
20260505011507 26 5 4.8 11.3 0.00 0.00 0.00 26 1008.5
20260505011005 26 29 4.8 9.7 0.00 0.00 0.00 25 1008.5
20260505010502 26 39 4.8 8.0 0.00 0.00 0.00 25 1008.5
20260505010002 26 20 3.2 8.0 0.00 0.00 0.00 25 1008.5
20260505005512 26 26 3.2 6.4 0.00 0.00 0.00 26 1008.5
20260505005001 26 349 3.2 6.4 0.00 0.00 0.00 26 1008.5
20260505004506 26 347 4.8 8.0 0.00 0.00 0.00 25 1008.5
20260505004001 26 351 4.8 9.7 0.00 0.00 0.00 25 1008.5
20260505003501 26 343 3.2 4.8 0.00 0.00 0.00 26 1008.5
20260505003006 26 30 3.2 6.4 0.00 0.00 0.00 26 1008.5
20260505002501 26 114 3.2 6.4 0.00 0.00 0.00 25 1008.5
20260505002008 26 43 1.6 3.2 0.00 0.00 0.00 26 1008.5
20260505001507 25 355 4.8 11.3 0.00 0.00 0.00 26 1008.5
20260505001001 25 355 4.8 9.7 0.00 0.00 0.00 26 1008.5
20260505000517 25 17 3.2 8.0 0.00 0.00 0.00 26 1008.5
20260505000000 25 20 1.6 8.0 0.00 0.00 0.00 26 1008.5
20260504235506 25 352 3.2 4.8 0.00 0.00 0.00 26 1008.5
20260504235008 26 2 4.8 6.4 0.00 0.00 0.00 26 1008.5
20260504234501 26 360 4.8 6.4 0.00 0.00 0.00 25 1008.5
20260504234016 26 3 4.8 9.7 0.00 0.00 0.00 25 1008.5
20260504233501 26 8 4.8 9.7 0.00 0.00 0.00 24 1008.5
20260504233001 27 8 4.8 8.0 0.00 0.00 0.00 24 1008.6
20260504232506 27 115 1.6 3.2 0.00 0.00 0.00 24 1008.7
20260504232000 26 49 3.2 8.0 0.00 0.00 0.00 24 1008.8
20260504231501 26 18 4.8 11.3 0.00 0.00 0.00 24 1008.8
20260504231006 26 25 4.8 12.9 0.00 0.00 0.00 24 1008.8
20260504230502 26 358 6.4 11.3 0.00 0.00 0.00 23 1008.8
20260504230001 27 25 6.4 12.9 0.00 0.00 0.00 23 1008.8
20260504225501 27 20 6.4 11.3 0.00 0.00 0.00 23 1008.8
20260504225001 27 41 4.8 14.5 0.00 0.00 0.00 22 1008.8
20260504224505 27 2 6.4 11.3 0.00 0.00 0.00 22 1008.8
20260504224001 28 64 3.2 6.4 0.00 0.00 0.00 22 1008.8
20260504223501 27 38 3.2 6.4 0.00 0.00 0.00 22 1008.8
20260504223001 27 4 4.8 11.3 0.00 0.00 0.00 23 1008.8
20260504222507 27 329 4.8 8.0 0.00 0.00 0.00 23 1008.8
20260504222001 27 17 6.4 11.3 0.00 0.00 0.00 23 1008.8
20260504221515 26 8 3.2 8.0 0.00 0.00 0.00 23 1008.8
20260504221001 26 6 8.0 12.9 0.00 0.00 0.00 23 1008.8
20260504220506 27 9 4.8 12.9 0.00 0.00 0.00 22 1008.8
20260504220000 27 9 4.8 12.9 0.00 0.00 0.00 22 1008.8
20260504215501 26 3 4.8 9.7 0.00 0.00 0.00 22 1008.8
20260504215001 26 7 6.4 12.9 0.00 0.00 0.00 22 1009.0
20260504214501 26 337 8.0 14.5 0.00 0.00 0.00 22 1009.1
20260504214001 27 30 4.8 11.3 0.00 0.00 0.00 22 1009.1
20260504213505 27 1 6.4 12.9 0.00 0.00 0.00 22 1009.1
20260504213010 27 335 3.2 6.4 0.00 0.00 0.00 22 1009.1
20260504212502 26 29 4.8 8.0 0.00 0.00 0.00 23 1009.1
20260504212006 26 1 6.4 11.3 0.00 0.00 0.00 23 1009.1
20260504211505 26 12 4.8 9.7 0.00 0.00 0.00 23 1009.3
20260504211007 26 15 6.4 11.3 0.00 0.00 0.00 22 1009.3
20260504210502 26 344 6.4 12.9 0.00 0.00 0.00 23 1009.1
20260504210012 26 294 4.8 9.7 0.00 0.00 0.00 22 1009.2
20260504205506 26 312 4.8 9.7 0.00 0.00 0.00 24 1009.5
20260504205001 26 325 9.7 17.7 0.00 0.00 0.00 23 1009.5
20260504204502 26 343 6.4 11.3 0.00 0.00 0.00 23 1009.5
20260504204007 26 353 4.8 8.0 0.00 0.00 0.00 23 1009.5
20260504203502 26 330 6.4 20.9 0.00 0.00 0.00 23 1009.4
20260504203001 26 29 3.2 11.3 0.00 0.00 0.00 23 1009.4
20260504202517 26 19 6.4 9.7 0.00 0.00 0.00 24 1009.5
20260504202010 26 24 8.0 14.5 0.00 0.00 0.00 23 1009.5
20260504201506 26 79 3.2 8.0 0.00 0.00 0.00 26 1009.5
20260504200501 26 51 3.2 8.0 0.00 0.00 0.00 28 1009.5
20260504200002 26 112 4.8 8.0 0.00 0.00 0.00 28 1009.5
20260504195501 26 120 6.4 11.3 0.00 0.00 0.00 28 1009.5
20260504195001 26 118 6.4 12.9 0.00 0.00 0.00 28 1009.5
20260504194002 25 112 4.8 8.0 0.00 0.00 0.00 27 1009.5
20260504193501 25 65 4.8 12.9 0.00 0.00 0.00 28 1009.6
20260504193002 25 350 4.8 8.0 0.00 0.00 0.00 28 1009.5
20260504192501 25 317 4.8 8.0 0.00 0.00 0.00 28 1009.7
20260504192002 26 327 4.8 9.7 0.00 0.00 0.00 29 1009.8
20260504191501 26 321 3.2 3.2 0.00 0.00 0.00 28 1009.8
20260504191001 26 34 1.6 3.2 0.00 0.00 0.00 29 1009.8
20260504190506 26 38 3.2 9.7 0.00 0.00 0.00 29 1010.0
20260504184501 24 108 3.2 6.4 0.00 0.00 0.00 31 1010.2
20260504184001 24 351 3.2 6.4 0.00 0.00 0.00 32 1010.2
20260504183502 24 22 3.2 8.0 0.00 0.00 0.00 31 1010.2
20260504183002 24 279 3.2 4.8 0.00 0.00 0.00 32 1010.2
20260504182501 24 133 3.2 6.4 0.00 0.00 0.00 31 1010.2
20260504182001 24 67 3.2 6.4 0.00 0.00 0.00 32 1010.2
20260504181506 23 91 1.6 4.8 0.00 0.00 0.00 32 1010.2
20260504181001 23 135 3.2 6.4 0.00 0.00 0.00 33 1010.2
20260504180506 22 337 3.2 6.4 0.00 0.00 0.00 34 1010.2
20260504180002 22 325 3.2 6.4 0.00 0.00 0.00 34 1010.2
20260504175502 22 354 3.2 6.4 0.00 0.00 0.00 35 1010.5
20260504175001 22 350 3.2 8.0 0.00 0.00 0.00 36 1010.5
20260504174501 21 331 3.2 6.4 0.00 0.00 0.00 36 1010.5
20260504174001 21 38 3.2 6.4 0.00 0.00 0.00 38 1010.5
20260504173501 21 334 3.2 6.4 0.00 0.00 0.00 38 1010.5
20260504173006 21 327 3.2 6.4 0.00 0.00 0.00 38 1010.5
20260504172506 20 308 3.2 4.8 0.00 0.00 0.00 39 1010.5
20260504172000 20 317 3.2 6.4 0.00 0.00 0.00 39 1010.5
20260504171501 20 312 3.2 6.4 0.00 0.00 0.00 39 1010.5
20260504171000 20 43 1.6 3.2 0.00 0.00 0.00 41 1010.5
20260504170512 19 320 3.2 4.8 0.00 0.00 0.00 41 1010.5
20260504151011 13 344 1.6 3.2 0.00 0.00 0.00 70 1011.2
20260504150502 12 260 1.6 1.6 0.00 0.00 0.00 72 1011.2
20260504141001 8 128 0.0 0.0 0.00 0.00 0.00 88 1010.9
20260504140501 8 132 0.0 1.6 0.00 0.00 0.00 89 1010.9
20260504130501 7 97 0.0 0.0 0.00 0.00 0.00 90 1010.5
20260504110501 8 313 0.0 0.0 0.00 0.00 0.00 85 1010.2
20260504100511 9 30 0.0 0.0 0.00 0.00 0.00 82 1009.8
20260504081510 12 4 0.0 0.0 0.00 0.00 0.00 75 1009.8
20260504081006 12 4 0.0 0.0 0.00 0.00 0.00 74 1009.8
20260504080507 12 4 0.0 0.0 0.00 0.00 0.00 73 1009.8